Content
SEND FEEDBACK

Daily
Averages
Monthly
Summary
United States of America

CASTLE HAYNE, NORTH CAROLINA


Home > North America > United States > North Carolina
Elevation: 35 feet     Latitude: 34 19N     Longitude: 077 55W

WEATHER
 
SELECT A DAY
Number of Records: 208,703;   Date Range: 1/1/95 - 7/23/14
 
SHARE

PRINT THIS DATA

[ ← Previous Day ]
WEATHER ALMANAC - APRIL 26, 2013
[ Next Day → ]
[ °C ]   °F
Weather ElementAverageHighLow
Temperature58.7 °F71.1 °F (1:53 pm)46 °F (5:53 am)
Dewpoint43.5 °F48 °F (8:53 am)30.9 °F (4:53 pm)
Humidity62 %93 % (2:53 am)26 % (4:53 pm)
Barometer30.35 in30.40 in (10:53 am)30.26 in (1:53 am)
Wind Speed6.6 mph12.7 mph (1:53 pm)
Wind Gust18.4 mph (1:53 pm)
Weather ElementAverage
Visibility10 mi
Wind DirectionENE (70 °)

Weather ElementTotal
Precipitation---
Heating Degree Days6.5 (Base 65)
Growing Degree Days8.6 (Base 50)
Averaged from 23 records on April 26, 2013
WEATHER CONDITIONS BREAKOUT
WIND DIRECTION BREAKOUT
WEATHER BY HOUR - APRIL 26, 2013
[ °C ]   °F
Local TimeTemperatureDewpointHumidityBarometerVisibilityWind DirectionWind SpeedGust SpeedPrecipitationEventsConditions
1:53 AM50.0 °F46.0 °F86 %30.26 in10.0 miENE (70°)4.6 mphClear
2:53 AM46.4 °F44.6 °F93 %30.27 in10.0 miNNE (30°)4.6 mphClear
3:53 AM48.0 °F45.0 °F89 %30.28 in10.0 miCalmClear
4:53 AM46.9 °F45.0 °F93 %30.29 in10.0 miNorth (360°)3.5 mphClear
5:53 AM46.0 °F43.0 °F89 %30.30 in10.0 miCalmClear
6:53 AM46.0 °F44.1 °F93 %30.32 in10.0 miCalmClear
7:53 AM51.1 °F46.0 °F83 %30.34 in10.0 miNE (40°)6.9 mphClear
8:53 AM57.9 °F48.0 °F70 %30.37 in10.0 miNE (40°)6.9 mphClear
9:53 AM62.1 °F46.9 °F58 %30.39 in10.0 miNorth (10°)6.9 mphClear
10:53 AM66.9 °F46.0 °F47 %30.40 in10.0 miNNE (30°)11.5 mphClear
11:53 AM70.0 °F44.1 °F39 %30.40 in10.0 miNNE (30°)10.4 mphClear
12:53 PM70.0 °F43.0 °F38 %30.38 in10.0 miESE (110°)9.2 mph17.3 mphClear
1:53 PM71.1 °F39.9 °F32 %30.37 in10.0 miEast (100°)12.7 mph18.4 mphClear
2:53 PM69.1 °F43.0 °F39 %30.37 in10.0 miSE (130°)12.7 mph17.3 mphClear
3:53 PM69.1 °F43.0 °F39 %30.35 in10.0 miESE (120°)10.4 mph17.3 mphClear
4:53 PM66.9 °F30.9 °F26 %30.35 in10.0 miESE (110°)11.5 mph18.4 mphClear
5:53 PM66.0 °F35.1 °F32 %30.34 in10.0 miESE (110°)11.5 mphClear
6:53 PM63.0 °F37.9 °F40 %30.34 in10.0 miEast (90°)9.2 mphClear
7:53 PM60.1 °F44.1 °F55 %30.36 in10.0 miEast (90°)5.8 mphClear
8:53 PM57.9 °F46.0 °F65 %30.38 in10.0 miCalmClear
9:53 PM57.9 °F45.0 °F62 %30.39 in10.0 miEast (100°)6.9 mphClear
10:53 PM57.0 °F48.0 °F72 %30.39 in10.0 miVariable3.5 mphClear
11:53 PM51.1 °F46.9 °F86 %30.38 in10.0 miNE (40°)3.5 mphClear
Hourly data recorded from KILM, located miles away from Castle Hayne, North Carolina







STORIES FROM OUR PARTNERS